owner,sensor,date,latitude,longitude,vertical_datum,direction_of_sea_water_velocity,sea_water_speed,upward_sea_water_velocity,qcFlag 
TABS,ioos:station:wmo:42050:1,1996-05-01T00:00:00Z,28.8425,-94.2433,2.0,335.9613324,9.132031537,-99999.0,'11133222,11111222,99999999' 
TABS,ioos:station:wmo:42050:1,1996-05-01T00:30:00Z,28.8425,-94.2433,2.0,338.805185,10.70407866,-99999.0,'11111222,11111222,99999999' 
TABS,ioos:station:wmo:42050:1,1996-05-01T01:00:00Z,28.8425,-94.2433,2.0,343.1353805,10.271772,-99999.0,'11111222,11111222,99999999' 
TABS,ioos:station:wmo:42050:1,1996-05-01T01:30:00Z,28.8425,-94.2433,2.0,341.299639,10.2300782,-99999.0,'11111222,11111222,99999999' 
TABS,ioos:station:wmo:42050:1,1996-05-01T02:00:00Z,28.8425,-94.2433,2.0,336.3267018,11.87970117,-99999.0,'11111222,11111222,99999999' 
TABS,ioos:station:wmo:42050:1,1996-05-01T02:30:00Z,28.8425,-94.2433,2.0,341.5795468,12.72184342,-99999.0,'11111222,11111222,99999999' 
TABS,ioos:station:wmo:42050:1,1996-05-01T03:00:00Z,28.8425,-94.2433,2.0,343.5546645,12.11566342,-99999.0,'11111222,11111222,99999999' 
TABS,ioos:station:wmo:42050:1,1996-05-01T03:30:00Z,28.8425,-94.2433,2.0,345.3384592,13.551273,-99999.0,'11111222,11111222,99999999' 
TABS,ioos:station:wmo:42050:1,1996-05-01T04:00:00Z,28.8425,-94.2433,2.0,345.8006407,12.7598511,-99999.0,'11111222,11111222,99999999' 
TABS,ioos:station:wmo:42050:1,1996-05-01T04:30:00Z,28.8425,-94.2433,2.0,345.1761955,13.40621125,-99999.0,'11111222,11111222,99999999' 
TABS,ioos:station:wmo:42050:1,1996-05-01T05:00:00Z,28.8425,-94.2433,2.0,349.7810074,12.56939935,-99999.0,'11111222,11111222,99999999' 
TABS,ioos:station:wmo:42050:1,1996-05-01T05:30:00Z,28.8425,-94.2433,2.0,349.403799,12.1268009,-99999.0,'11111222,11111222,99999999' 
TABS,ioos:station:wmo:42050:1,1996-05-01T06:00:00Z,28.8425,-94.2433,2.0,339.0917243,10.8440675,-99999.0,'11111222,11111222,99999999' 
TABS,ioos:station:wmo:42050:1,1996-05-01T06:30:00Z,28.8425,-94.2433,2.0,342.1539379,9.234338092,-99999.0,'11133222,11111222,99999999' 
TABS,ioos:station:wmo:42050:1,1996-05-01T07:00:00Z,28.8425,-94.2433,2.0,347.6661338,3.511039732,-99999.0,'11133222,11111222,99999999' 
TABS,ioos:station:wmo:42050:1,1996-05-01T07:30:00Z,28.8425,-94.2433,2.0,332.2932667,6.731901663,-99999.0,'11133222,11111222,99999999' 
TABS,ioos:station:wmo:42050:1,1996-05-01T08:00:00Z,28.8425,-94.2433,2.0,299.2361571,1.535610628,-99999.0,'11133222,11111222,99999999' 
TABS,ioos:station:wmo:42050:1,1996-05-01T08:30:00Z,28.8425,-94.2433,2.0,18.43511617,0.474341649,-99999.0,'11133222,11111222,99999999' 
TABS,ioos:station:wmo:42050:1,1996-05-01T09:00:00Z,28.8425,-94.2433,2.0,159.9046053,1.746310396,-99999.0,'11133222,11111222,99999999' 
TABS,ioos:station:wmo:42050:1,1996-05-01T09:30:00Z,28.8425,-94.2433,2.0,236.9699177,4.091185647,-99999.0,'11133222,11111222,99999999' 
TABS,ioos:station:wmo:42050:1,1996-05-01T10:00:00Z,28.8425,-94.2433,2.0,207.5582451,3.868979194,-99999.0,'11133222,11111222,99999999' 
TABS,ioos:station:wmo:42050:1,1996-05-01T10:30:00Z,28.8425,-94.2433,2.0,236.6912164,6.24606276,-99999.0,'11133222,11111222,99999999' 
TABS,ioos:station:wmo:42050:1,1996-05-01T11:00:00Z,28.8425,-94.2433,2.0,228.313102,5.38301031,-99999.0,'11133222,11111222,99999999' 
TABS,ioos:station:wmo:42050:1,1996-05-01T11:30:00Z,28.8425,-94.2433,2.0,232.9068285,6.168046692,-99999.0,'11133222,11111222,99999999' 
TABS,ioos:station:wmo:42050:1,1996-05-01T12:00:00Z,28.8425,-94.2433,2.0,215.2261729,6.206552989,-99999.0,'11133222,11111222,99999999' 
TABS,ioos:station:wmo:42050:1,1996-05-01T12:30:00Z,28.8425,-94.2433,2.0,230.0480322,6.026715523,-99999.0,'11133222,11111222,99999999' 
TABS,ioos:station:wmo:42050:1,1996-05-01T13:00:00Z,28.8425,-94.2433,2.0,252.5581399,5.471562848,-99999.0,'11133222,11111222,99999999' 
TABS,ioos:station:wmo:42050:1,1996-05-01T13:30:00Z,28.8425,-94.2433,2.0,255.8880785,1.8456977,-99999.0,'11133222,11111222,99999999' 
TABS,ioos:station:wmo:42050:1,1996-05-01T14:00:00Z,28.8425,-94.2433,2.0,268.5206741,5.811935994,-99999.0,'11133222,11111222,99999999' 
TABS,ioos:station:wmo:42050:1,1996-05-01T14:30:00Z,28.8425,-94.2433,2.0,290.1479752,4.761354849,-99999.0,'11133222,11111222,99999999' 
TABS,ioos:station:wmo:42050:1,1996-05-01T15:00:00Z,28.8425,-94.2433,2.0,291.3394948,3.682458418,-99999.0,'11133222,11111222,99999999' 
TABS,ioos:station:wmo:42050:1,1996-05-01T15:30:00Z,28.8425,-94.2433,2.0,330.2356892,3.605689948,-99999.0,'11133222,11111222,99999999' 
TABS,ioos:station:wmo:42050:1,1996-05-01T16:00:00Z,28.8425,-94.2433,2.0,341.5332423,5.650991064,-99999.0,'11133222,11111222,99999999' 
TABS,ioos:station:wmo:42050:1,1996-05-01T16:30:00Z,28.8425,-94.2433,2.0,321.8122275,6.25965654,-99999.0,'11133222,11111222,99999999' 
TABS,ioos:station:wmo:42050:1,1996-05-01T17:00:00Z,28.8425,-94.2433,2.0,329.2174213,8.14793839,-99999.0,'11133222,11111222,99999999' 
TABS,ioos:station:wmo:42050:1,1996-05-01T17:30:00Z,28.8425,-94.2433,2.0,327.9066068,7.566273852,-99999.0,'11133222,11111222,99999999' 
TABS,ioos:station:wmo:42050:1,1996-05-01T18:00:00Z,28.8425,-94.2433,2.0,327.1773953,5.497708614,-99999.0,'11133222,11111222,99999999' 
TABS,ioos:station:wmo:42050:1,1996-05-01T18:30:00Z,28.8425,-94.2433,2.0,321.0348708,4.977328601,-99999.0,'11133222,11111222,99999999' 
TABS,ioos:station:wmo:42050:1,1996-05-01T19:00:00Z,28.8425,-94.2433,2.0,326.9358903,3.555840266,-99999.0,'11133222,11111222,99999999' 
TABS,ioos:station:wmo:42050:1,1996-05-01T19:30:00Z,28.8425,-94.2433,2.0,317.1319239,2.851613578,-99999.0,'11133222,11111222,99999999' 
TABS,ioos:station:wmo:42050:1,1996-05-01T20:00:00Z,28.8425,-94.2433,2.0,284.0366316,0.618465844,-99999.0,'11133222,11111222,99999999' 
TABS,ioos:station:wmo:42050:1,1996-05-01T20:30:00Z,28.8425,-94.2433,2.0,310.1210533,1.163872845,-99999.0,'11133222,11111222,99999999' 
TABS,ioos:station:wmo:42050:1,1996-05-01T21:00:00Z,28.8425,-94.2433,2.0,259.6332807,1.667213244,-99999.0,'11133222,11111222,99999999' 
TABS,ioos:station:wmo:42050:1,1996-05-01T21:30:00Z,28.8425,-94.2433,2.0,251.4106532,2.35274308,-99999.0,'11133222,11111222,99999999' 
TABS,ioos:station:wmo:42050:1,1996-05-01T22:00:00Z,28.8425,-94.2433,2.0,239.1491273,1.735569071,-99999.0,'11133222,11111222,99999999' 
TABS,ioos:station:wmo:42050:1,1996-05-01T22:30:00Z,28.8425,-94.2433,2.0,261.2090565,1.963058838,-99999.0,'11133222,11111222,99999999' 
TABS,ioos:station:wmo:42050:1,1996-05-01T23:00:00Z,28.8425,-94.2433,2.0,236.2503394,2.681976883,-99999.0,'11133222,11111222,99999999' 
TABS,ioos:station:wmo:42050:1,1996-05-01T23:30:00Z,28.8425,-94.2433,2.0,243.5443517,2.334459252,-99999.0,'11133222,11111222,99999999' 
TABS,ioos:station:wmo:42050:1,1996-05-02T00:00:00Z,28.8425,-94.2433,2.0,237.7783876,1.406627172,-99999.0,'11133222,11111222,99999999' 
TABS,ioos:station:wmo:42050:1,1996-05-02T00:30:00Z,28.8425,-94.2433,2.0,283.341849,2.600173071,-99999.0,'11133222,11111222,99999999' 
TABS,ioos:station:wmo:42050:1,1996-05-02T01:00:00Z,28.8425,-94.2433,2.0,278.7909435,1.963058838,-99999.0,'11133222,11111222,99999999' 
TABS,ioos:station:wmo:42050:1,1996-05-02T01:30:00Z,28.8425,-94.2433,2.0,294.9495217,4.59918471,-99999.0,'11133222,11111222,99999999' 
TABS,ioos:station:wmo:42050:1,1996-05-02T02:00:00Z,28.8425,-94.2433,2.0,310.2831106,5.072997142,-99999.0,'11133222,11111222,99999999' 
TABS,ioos:station:wmo:42050:1,1996-05-02T02:30:00Z,28.8425,-94.2433,2.0,300.3674415,7.081560562,-99999.0,'11133222,11111222,99999999' 
TABS,ioos:station:wmo:42050:1,1996-05-02T03:00:00Z,28.8425,-94.2433,2.0,316.801472,6.749133278,-99999.0,'11133222,11111222,99999999' 
TABS,ioos:station:wmo:42050:1,1996-05-02T03:30:00Z,28.8425,-94.2433,2.0,327.3698515,6.89887672,-99999.0,'11133222,11111222,99999999' 
TABS,ioos:station:wmo:42050:1,1996-05-02T04:00:00Z,28.8425,-94.2433,2.0,320.7489657,6.353487231,-99999.0,'11133222,11111222,99999999' 
TABS,ioos:station:wmo:42050:1,1996-05-02T04:30:00Z,28.8425,-94.2433,2.0,329.2794174,7.281895358,-99999.0,'11133222,11111222,99999999' 
TABS,ioos:station:wmo:42050:1,1996-05-02T05:00:00Z,28.8425,-94.2433,2.0,320.9961453,8.055588123,-99999.0,'11133222,11111222,99999999' 
TABS,ioos:station:wmo:42050:1,1996-05-02T05:30:00Z,28.8425,-94.2433,2.0,318.0621693,7.810537754,-99999.0,'11133222,11111222,99999999' 
TABS,ioos:station:wmo:42050:1,1996-05-02T06:00:00Z,28.8425,-94.2433,2.0,335.2376364,6.398320092,-99999.0,'11133222,11111222,99999999' 
TABS,ioos:station:wmo:42050:1,1996-05-02T06:30:00Z,28.8425,-94.2433,2.0,322.2284887,5.844724117,-99999.0,'11133222,11111222,99999999' 
TABS,ioos:station:wmo:42050:1,1996-05-02T07:00:00Z,28.8425,-94.2433,2.0,330.2356892,3.605689948,-99999.0,'11133222,11111222,99999999' 
TABS,ioos:station:wmo:42050:1,1996-05-02T07:30:00Z,28.8425,-94.2433,2.0,309.7638162,3.486445181,-99999.0,'11133222,11111222,99999999' 
TABS,ioos:station:wmo:42050:1,1996-05-02T08:00:00Z,28.8425,-94.2433,2.0,278.7909435,1.963058838,-99999.0,'11133222,11111222,99999999' 
TABS,ioos:station:wmo:42050:1,1996-05-02T08:30:00Z,28.8425,-94.2433,2.0,220.5555886,1.368831619,-99999.0,'11133222,11111222,99999999' 
TABS,ioos:station:wmo:42050:1,1996-05-02T09:00:00Z,28.8425,-94.2433,2.0,230.4745555,4.446774112,-99999.0,'11133222,11111222,99999999' 
TABS,ioos:station:wmo:42050:1,1996-05-02T09:30:00Z,28.8425,-94.2433,2.0,229.7168894,5.072997142,-99999.0,'11133222,11111222,99999999' 
TABS,ioos:station:wmo:42050:1,1996-05-02T10:00:00Z,28.8425,-94.2433,2.0,196.1984802,3.728002146,-99999.0,'11133222,11111222,99999999' 
TABS,ioos:station:wmo:42050:1,1996-05-02T10:30:00Z,28.8425,-94.2433,2.0,216.2702095,5.544303383,-99999.0,'11133222,11111222,99999999' 
TABS,ioos:station:wmo:42050:1,1996-05-02T11:00:00Z,28.8425,-94.2433,2.0,206.5195571,5.66619802,-99999.0,'11133222,11111222,99999999' 
TABS,ioos:station:wmo:42050:1,1996-05-02T11:30:00Z,28.8425,-94.2433,2.0,218.510078,8.38343605,-99999.0,'11133222,11111222,99999999' 
TABS,ioos:station:wmo:42050:1,1996-05-02T12:00:00Z,28.8425,-94.2433,2.0,222.2559858,6.647352857,-99999.0,'11133222,11111222,99999999' 
TABS,ioos:station:wmo:42050:1,1996-05-02T12:30:00Z,28.8425,-94.2433,2.0,230.9465335,6.142458791,-99999.0,'11133222,11111222,99999999' 
TABS,ioos:station:wmo:42050:1,1996-05-02T13:00:00Z,28.8425,-94.2433,2.0,232.9068285,6.168046692,-99999.0,'11133222,11111222,99999999' 
TABS,ioos:station:wmo:42050:1,1996-05-02T13:30:00Z,28.8425,-94.2433,2.0,248.4955396,6.083461186,-99999.0,'11133222,11111222,99999999' 
TABS,ioos:station:wmo:42050:1,1996-05-02T14:00:00Z,28.8425,-94.2433,2.0,254.0687184,5.428489661,-99999.0,'11133222,11111222,99999999' 
TABS,ioos:station:wmo:42050:1,1996-05-02T14:30:00Z,28.8425,-94.2433,2.0,267.6905217,3.723022965,-99999.0,'11133222,11111222,99999999' 
TABS,ioos:station:wmo:42050:1,1996-05-02T15:00:00Z,28.8425,-94.2433,2.0,280.9810453,5.45996337,-99999.0,'11133222,11111222,99999999' 
TABS,ioos:station:wmo:42050:1,1996-05-02T15:30:00Z,28.8425,-94.2433,2.0,292.5898656,5.805385431,-99999.0,'11133222,11111222,99999999' 
TABS,ioos:station:wmo:42050:1,1996-05-02T16:00:00Z,28.8425,-94.2433,2.0,300.1177955,5.341048586,-99999.0,'11133222,11111222,99999999' 
TABS,ioos:station:wmo:42050:1,1996-05-02T16:30:00Z,28.8425,-94.2433,2.0,305.4489341,8.224530382,-99999.0,'11133222,11111222,99999999' 
TABS,ioos:station:wmo:42050:1,1996-05-02T17:00:00Z,28.8425,-94.2433,2.0,313.05584,9.16938384,-99999.0,'11133222,11111222,99999999' 
TABS,ioos:station:wmo:42050:1,1996-05-02T17:30:00Z,28.8425,-94.2433,2.0,318.9912195,10.66782546,-99999.0,'11111222,11111222,99999999' 
TABS,ioos:station:wmo:42050:1,1996-05-02T18:00:00Z,28.8425,-94.2433,2.0,322.454954,10.51873091,-99999.0,'11111222,11111222,99999999' 
TABS,ioos:station:wmo:42050:1,1996-05-02T18:30:00Z,28.8425,-94.2433,2.0,320.2947497,10.26857342,-99999.0,'11111222,11111222,99999999' 
TABS,ioos:station:wmo:42050:1,1996-05-02T19:00:00Z,28.8425,-94.2433,2.0,319.6047921,10.57000473,-99999.0,'11111222,11111222,99999999' 
TABS,ioos:station:wmo:42050:1,1996-05-02T19:30:00Z,28.8425,-94.2433,2.0,315.0003157,8.640844866,-99999.0,'11133222,11111222,99999999' 
TABS,ioos:station:wmo:42050:1,1996-05-02T20:00:00Z,28.8425,-94.2433,2.0,311.4446772,8.551239676,-99999.0,'11133222,11111222,99999999' 
TABS,ioos:station:wmo:42050:1,1996-05-02T20:30:00Z,28.8425,-94.2433,2.0,305.156161,8.023590219,-99999.0,'11133222,11111222,99999999' 
TABS,ioos:station:wmo:42050:1,1996-05-02T21:00:00Z,28.8425,-94.2433,2.0,304.5886318,8.138451941,-99999.0,'11133222,11111222,99999999' 
TABS,ioos:station:wmo:42050:1,1996-05-02T21:30:00Z,28.8425,-94.2433,2.0,296.0000108,6.79797764,-99999.0,'11133222,11111222,99999999' 
TABS,ioos:station:wmo:42050:1,1996-05-02T22:00:00Z,28.8425,-94.2433,2.0,290.3878311,5.56884189,-99999.0,'11133222,11111222,99999999' 
TABS,ioos:station:wmo:42050:1,1996-05-02T22:30:00Z,28.8425,-94.2433,2.0,282.6716243,6.108780566,-99999.0,'11133222,11111222,99999999' 
TABS,ioos:station:wmo:42050:1,1996-05-02T23:00:00Z,28.8425,-94.2433,2.0,270.0004209,8.05,-99999.0,'11133222,11111222,99999999' 
TABS,ioos:station:wmo:42050:1,1996-05-02T23:30:00Z,28.8425,-94.2433,2.0,253.8511253,6.975213258,-99999.0,'11133222,11111222,99999999' 
TABS,ioos:station:wmo:42050:1,1996-05-03T00:00:00Z,28.8425,-94.2433,2.0,259.2518781,8.794270862,-99999.0,'11133222,11111222,99999999' 
TABS,ioos:station:wmo:42050:1,1996-05-03T00:30:00Z,28.8425,-94.2433,2.0,265.4329442,9.419904458,-99999.0,'11133222,11111222,99999999' 
TABS,ioos:station:wmo:42050:1,1996-05-03T01:00:00Z,28.8425,-94.2433,2.0,275.7772129,10.33247308,-99999.0,'11111222,11111222,99999999' 
TABS,ioos:station:wmo:42050:1,1996-05-03T01:30:00Z,28.8425,-94.2433,2.0,280.9640978,9.411785165,-99999.0,'11133222,11111222,99999999' 
TABS,ioos:station:wmo:42050:1,1996-05-03T02:00:00Z,28.8425,-94.2433,2.0,284.2255918,10.29569327,-99999.0,'11111222,11111222,99999999' 
TABS,ioos:station:wmo:42050:1,1996-05-03T02:30:00Z,28.8425,-94.2433,2.0,302.9616232,9.594316026,-99999.0,'11133222,11111222,99999999' 
TABS,ioos:station:wmo:42050:1,1996-05-03T03:00:00Z,28.8425,-94.2433,2.0,317.4029195,10.1205237,-99999.0,'11111222,11111222,99999999' 
TABS,ioos:station:wmo:42050:1,1996-05-03T03:30:00Z,28.8425,-94.2433,2.0,318.3332361,12.77073608,-99999.0,'11111222,11111222,99999999' 
TABS,ioos:station:wmo:42050:1,1996-05-03T04:00:00Z,28.8425,-94.2433,2.0,325.2275495,15.41232299,-99999.0,'11111222,11111222,99999999' 
TABS,ioos:station:wmo:42050:1,1996-05-03T04:30:00Z,28.8425,-94.2433,2.0,332.3045331,16.99742628,-99999.0,'11111222,11111222,99999999' 
TABS,ioos:station:wmo:42050:1,1996-05-03T05:00:00Z,28.8425,-94.2433,2.0,334.4511412,18.66515738,-99999.0,'11111222,11111222,99999999' 
TABS,ioos:station:wmo:42050:1,1996-05-03T05:30:00Z,28.8425,-94.2433,2.0,339.447506,20.36633006,-99999.0,'11111222,11111222,99999999' 
TABS,ioos:station:wmo:42050:1,1996-05-03T06:00:00Z,28.8425,-94.2433,2.0,341.5563621,20.26071322,-99999.0,'11111222,11111222,99999999' 
TABS,ioos:station:wmo:42050:1,1996-05-03T06:30:00Z,28.8425,-94.2433,2.0,344.9991117,19.5875292,-99999.0,'11111222,11111222,99999999' 
TABS,ioos:station:wmo:42050:1,1996-05-03T07:00:00Z,28.8425,-94.2433,2.0,349.2019116,19.10835681,-99999.0,'11111222,11111222,99999999' 
TABS,ioos:station:wmo:42050:1,1996-05-03T07:30:00Z,28.8425,-94.2433,2.0,353.4286126,16.95137753,-99999.0,'11111222,11111222,99999999' 
TABS,ioos:station:wmo:42050:1,1996-05-03T08:00:00Z,28.8425,-94.2433,2.0,357.3802118,16.40715088,-99999.0,'11111222,11111222,99999999' 
TABS,ioos:station:wmo:42050:1,1996-05-03T08:30:00Z,28.8425,-94.2433,2.0,9.875431927,13.00265358,-99999.0,'11111222,11111222,99999999' 
TABS,ioos:station:wmo:42050:1,1996-05-03T09:00:00Z,28.8425,-94.2433,2.0,11.17466604,10.78445641,-99999.0,'11111222,11111222,99999999' 
TABS,ioos:station:wmo:42050:1,1996-05-03T09:30:00Z,28.8425,-94.2433,2.0,18.40945758,7.061366723,-99999.0,'11133222,11111222,99999999' 
TABS,ioos:station:wmo:42050:1,1996-05-03T10:00:00Z,28.8425,-94.2433,2.0,43.14051024,6.537109453,-99999.0,'11133222,11111222,99999999' 
TABS,ioos:station:wmo:42050:1,1996-05-03T10:30:00Z,28.8425,-94.2433,2.0,64.94372333,5.265529413,-99999.0,'11133222,11111222,99999999' 
TABS,ioos:station:wmo:42050:1,1996-05-03T11:00:00Z,28.8425,-94.2433,2.0,79.4320105,4.089364254,-99999.0,'11133222,11111222,99999999' 
TABS,ioos:station:wmo:42050:1,1996-05-03T11:30:00Z,28.8425,-94.2433,2.0,97.96539812,5.41221766,-99999.0,'11133222,11111222,99999999' 
TABS,ioos:station:wmo:42050:1,1996-05-03T12:00:00Z,28.8425,-94.2433,2.0,115.8174648,4.799010315,-99999.0,'11133222,11111222,99999999' 
TABS,ioos:station:wmo:42050:1,1996-05-03T12:30:00Z,28.8425,-94.2433,2.0,123.732211,3.763641853,-99999.0,'11133222,11111222,99999999' 
TABS,ioos:station:wmo:42050:1,1996-05-03T13:00:00Z,28.8425,-94.2433,2.0,134.9998948,3.365828278,-99999.0,'11133222,11111222,99999999' 
TABS,ioos:station:wmo:42050:1,1996-05-03T13:30:00Z,28.8425,-94.2433,2.0,130.063386,3.697742555,-99999.0,'11133222,11111222,99999999' 
TABS,ioos:station:wmo:42050:1,1996-05-03T14:00:00Z,28.8425,-94.2433,2.0,111.2091765,2.874717377,-99999.0,'11133222,11111222,99999999' 
TABS,ioos:station:wmo:42050:1,1996-05-03T14:30:00Z,28.8425,-94.2433,2.0,108.5308782,1.887882412,-99999.0,'11133222,11111222,99999999' 
TABS,ioos:station:wmo:42050:1,1996-05-03T15:00:00Z,28.8425,-94.2433,2.0,79.29318376,2.42216845,-99999.0,'11133222,11111222,99999999' 
TABS,ioos:station:wmo:42050:1,1996-05-03T15:30:00Z,28.8425,-94.2433,2.0,90.0,1.04,-99999.0,'11133222,11111222,99999999' 
TABS,ioos:station:wmo:42050:1,1996-05-03T16:00:00Z,28.8425,-94.2433,2.0,48.39310836,1.792121648,-99999.0,'11133222,11111222,99999999' 
TABS,ioos:station:wmo:42050:1,1996-05-03T16:30:00Z,28.8425,-94.2433,2.0,19.74077378,2.22049544,-99999.0,'11133222,11111222,99999999' 
TABS,ioos:station:wmo:42050:1,1996-05-03T17:00:00Z,28.8425,-94.2433,2.0,350.0780402,3.48208271,-99999.0,'11133222,11111222,99999999' 
TABS,ioos:station:wmo:42050:1,1996-05-03T17:30:00Z,28.8425,-94.2433,2.0,349.928847,6.804858558,-99999.0,'11133222,11111222,99999999' 
TABS,ioos:station:wmo:42050:1,1996-05-03T18:00:00Z,28.8425,-94.2433,2.0,340.2153498,6.174479735,-99999.0,'11133222,11111222,99999999' 
TABS,ioos:station:wmo:42050:1,1996-05-03T18:30:00Z,28.8425,-94.2433,2.0,341.0264901,5.044055908,-99999.0,'11133222,11111222,99999999' 
TABS,ioos:station:wmo:42050:1,1996-05-03T19:00:00Z,28.8425,-94.2433,2.0,330.8168181,7.341968401,-99999.0,'11133222,11111222,99999999' 
TABS,ioos:station:wmo:42050:1,1996-05-03T19:30:00Z,28.8425,-94.2433,2.0,332.6973238,4.861614958,-99999.0,'11133222,11111222,99999999' 
TABS,ioos:station:wmo:42050:1,1996-05-03T20:00:00Z,28.8425,-94.2433,2.0,316.1324933,5.36798845,-99999.0,'11133222,11111222,99999999' 
TABS,ioos:station:wmo:42050:1,1996-05-03T20:30:00Z,28.8425,-94.2433,2.0,308.3268003,4.563474553,-99999.0,'11133222,11111222,99999999' 
TABS,ioos:station:wmo:42050:1,1996-05-03T21:00:00Z,28.8425,-94.2433,2.0,299.7156302,4.801385217,-99999.0,'11133222,11111222,99999999' 
TABS,ioos:station:wmo:42050:1,1996-05-03T21:30:00Z,28.8425,-94.2433,2.0,288.0329055,7.203846195,-99999.0,'11133222,11111222,99999999' 
TABS,ioos:station:wmo:42050:1,1996-05-03T22:00:00Z,28.8425,-94.2433,2.0,287.6156619,6.410592796,-99999.0,'11133222,11111222,99999999' 
TABS,ioos:station:wmo:42050:1,1996-05-03T22:30:00Z,28.8425,-94.2433,2.0,265.5707205,5.827400793,-99999.0,'11133222,11111222,99999999' 
TABS,ioos:station:wmo:42050:1,1996-05-03T23:00:00Z,28.8425,-94.2433,2.0,261.5489,7.076835451,-99999.0,'11133222,11111222,99999999' 
TABS,ioos:station:wmo:42050:1,1996-05-03T23:30:00Z,28.8425,-94.2433,2.0,250.9239081,8.200298775,-99999.0,'11133222,11111222,99999999' 
TABS,ioos:station:wmo:42050:1,1996-05-04T00:00:00Z,28.8425,-94.2433,2.0,246.3576466,7.805088084,-99999.0,'11133222,11111222,99999999' 
TABS,ioos:station:wmo:42050:1,1996-05-04T00:30:00Z,28.8425,-94.2433,2.0,249.8520248,9.522709698,-99999.0,'11133222,11111222,99999999' 
TABS,ioos:station:wmo:42050:1,1996-05-04T01:00:00Z,28.8425,-94.2433,2.0,254.7494281,10.18878305,-99999.0,'11111222,11111222,99999999' 
TABS,ioos:station:wmo:42050:1,1996-05-04T01:30:00Z,28.8425,-94.2433,2.0,261.1883379,10.70635325,-99999.0,'11111222,11111222,99999999' 
TABS,ioos:station:wmo:42050:1,1996-05-04T02:00:00Z,28.8425,-94.2433,2.0,267.2226619,12.38454279,-99999.0,'11111222,11111222,99999999' 
TABS,ioos:station:wmo:42050:1,1996-05-04T02:30:00Z,28.8425,-94.2433,2.0,271.3113053,13.11343205,-99999.0,'11111222,11111222,99999999' 
TABS,ioos:station:wmo:42050:1,1996-05-04T03:00:00Z,28.8425,-94.2433,2.0,292.4526384,12.09697483,-99999.0,'11111222,11111222,99999999' 
TABS,ioos:station:wmo:42050:1,1996-05-04T03:30:00Z,28.8425,-94.2433,2.0,308.8904367,12.82196943,-99999.0,'11111222,11111222,99999999' 
TABS,ioos:station:wmo:42050:1,1996-05-04T04:00:00Z,28.8425,-94.2433,2.0,311.7642604,16.78519586,-99999.0,'11111222,11111222,99999999' 
TABS,ioos:station:wmo:42050:1,1996-05-04T04:30:00Z,28.8425,-94.2433,2.0,315.0003157,18.11607573,-99999.0,'11111222,11111222,99999999' 
TABS,ioos:station:wmo:42050:1,1996-05-04T05:00:00Z,28.8425,-94.2433,2.0,323.8587955,19.193551,-99999.0,'11111222,11111222,99999999' 
TABS,ioos:station:wmo:42050:1,1996-05-04T05:30:00Z,28.8425,-94.2433,2.0,324.0334828,18.7803328,-99999.0,'11111222,11111222,99999999' 
TABS,ioos:station:wmo:42050:1,1996-05-04T06:00:00Z,28.8425,-94.2433,2.0,328.744615,19.52365232,-99999.0,'11111222,11111222,99999999' 
TABS,ioos:station:wmo:42050:1,1996-05-04T06:30:00Z,28.8425,-94.2433,2.0,330.8561995,19.28101916,-99999.0,'11111222,11111222,99999999' 
TABS,ioos:station:wmo:42050:1,1996-05-04T07:00:00Z,28.8425,-94.2433,2.0,330.4683654,19.35451369,-99999.0,'11111222,11111222,99999999' 
TABS,ioos:station:wmo:42050:1,1996-05-04T07:30:00Z,28.8425,-94.2433,2.0,329.347749,19.57513729,-99999.0,'11111222,11111222,99999999' 
TABS,ioos:station:wmo:42050:1,1996-05-04T08:00:00Z,28.8425,-94.2433,2.0,332.9870436,17.72361701,-99999.0,'11111222,11111222,99999999' 
TABS,ioos:station:wmo:42050:1,1996-05-04T08:30:00Z,28.8425,-94.2433,2.0,325.2985471,16.49380793,-99999.0,'11111222,11111222,99999999' 
TABS,ioos:station:wmo:42050:1,1996-05-04T09:00:00Z,28.8425,-94.2433,2.0,327.2222537,10.45464968,-99999.0,'11111222,11111222,99999999' 
TABS,ioos:station:wmo:42050:1,1996-05-04T09:30:00Z,28.8425,-94.2433,2.0,305.6684021,7.151573253,-99999.0,'11133222,11111222,99999999' 
TABS,ioos:station:wmo:42050:1,1996-05-04T10:00:00Z,28.8425,-94.2433,2.0,291.3678394,7.355603306,-99999.0,'11133222,11111222,99999999' 
TABS,ioos:station:wmo:42050:1,1996-05-04T10:30:00Z,28.8425,-94.2433,2.0,255.6023745,5.389248556,-99999.0,'11133222,11111222,99999999' 
TABS,ioos:station:wmo:42050:1,1996-05-04T11:00:00Z,28.8425,-94.2433,2.0,230.0480322,6.026715523,-99999.0,'11133222,11111222,99999999' 
TABS,ioos:station:wmo:42050:1,1996-05-04T11:30:00Z,28.8425,-94.2433,2.0,229.4285429,8.241189235,-99999.0,'11133222,11111222,99999999' 
TABS,ioos:station:wmo:42050:1,1996-05-04T12:00:00Z,28.8425,-94.2433,2.0,219.5394845,7.728389224,-99999.0,'11133222,11111222,99999999' 
TABS,ioos:station:wmo:42050:1,1996-05-04T12:30:00Z,28.8425,-94.2433,2.0,212.237579,8.098450469,-99999.0,'11133222,11111222,99999999' 
TABS,ioos:station:wmo:42050:1,1996-05-04T13:00:00Z,28.8425,-94.2433,2.0,210.8001145,9.022577237,-99999.0,'11133222,11111222,99999999' 
TABS,ioos:station:wmo:42050:1,1996-05-04T13:30:00Z,28.8425,-94.2433,2.0,210.0922384,6.541712314,-99999.0,'11133222,11111222,99999999' 
TABS,ioos:station:wmo:42050:1,1996-05-04T14:00:00Z,28.8425,-94.2433,2.0,220.0768804,4.861614958,-99999.0,'11133222,11111222,99999999' 
TABS,ioos:station:wmo:42050:1,1996-05-04T14:30:00Z,28.8425,-94.2433,2.0,218.94854,4.024649053,-99999.0,'11133222,11111222,99999999' 
TABS,ioos:station:wmo:42050:1,1996-05-04T15:00:00Z,28.8425,-94.2433,2.0,203.1762295,3.404776057,-99999.0,'11133222,11111222,99999999' 
TABS,ioos:station:wmo:42050:1,1996-05-04T15:30:00Z,28.8425,-94.2433,2.0,224.9996843,2.319310242,-99999.0,'11133222,11111222,99999999' 
TABS,ioos:station:wmo:42050:1,1996-05-04T16:00:00Z,28.8425,-94.2433,2.0,210.9634737,0.874642784,-99999.0,'11133222,11111222,99999999' 